Regional Weather Roundup
Issued by NWS

Home | Current Version | Previous Version | Graphics & Text | Print | Product List | Glossary On
Versions: 1 2 3 4 5 6 7 8 9 10 11 12 13 14 15 16 17 18 19 20 21 22 23 24 25 26 27 28 29 30 31 32 33 34 35 36 37 38 39 40 41 42 43 44 45 46 47 48 49 50
000
ASUS43 KIND 090959
RWRIN

WEATHER ROUNDUP FOR INDIANA
NATIONAL WEATHER SERVICE INDIANAPOLIS IN
500 AM EST TUE FEB 09 2016

NOTE: "FAIR" INDICATES FEW OR NO CLOUDS BELOW 12,000 FEET WITH NO
SIGNIFICANT WEATHER AND/OR OBSTRUCTIONS TO VISIBILITY.

* - STATION DOES NOT REPORT WEATHER SUCH AS PRECIPITATION OR FOG.

+ - STATION NOT QUALITY CONTROLLED BY THE NATIONAL WEATHER SERVICE.
    USE DATA WITH CAUTION...ESPECIALLY DEWPOINT AND RELATIVE
    HUMIDITY OBSERVATIONS.

INZ001>003-010>013-019-020-091100-
NORTHWEST INDIANA

CITY           SKY/WX    TMP DP  RH WIND       PRES   REMARKS
RENSSELAER +   LGT SNOW  23  18  80 W10       29.72S WCI  12

$$

LMZ046-743>745-091100-
SOUTHERN LAKE MICHIGAN

STATION/POSITION TIME  TEMP    WIND        PRES    WAVE
                       AIR SEA DIR/SP/G            HT
                 (UTC) (F)     (DEG/KT/KT) (MB)    (FT)
BURNS HARBOR     0900   23     310/ 16/ 19 1006.4F
MICHIGAN CITY    0900   24     260/ 23/ 26   N/A

$$

INZ004-005-014>016-021>024-091100-
NORTH CENTRAL INDIANA

CITY           SKY/WX    TMP DP  RH WIND       PRES   REMARKS
GOSHEN         CLOUDY    26  22  84 W18       29.61S WCI  13
SOUTH BEND     LGT SNOW  24  22  91 W13       29.64S FOG     WCI  12

$$

INZ006>009-017-018-025>027-091100-
NORTHEAST INDIANA

CITY           SKY/WX    TMP DP  RH WIND       PRES   REMARKS
ANGOLA *+      CLOUDY    27  25  93 W7        29.56S WCI  19
FORT WAYNE     FLURRIES  27  22  81 W17       29.63S WCI  14

$$

INZ028-029-035-036-043>045-051>053-091100-
WEST CENTRAL INDIANA

CITY           SKY/WX    TMP DP  RH WIND       PRES   REMARKS
GREENCASTLE +  CLOUDY    19  14  79 W6        29.75S WCI  11
LAFAYETTE      CLOUDY    20  15  81 W15G21    29.74R WCI   6
TERRE HAUTE    CLOUDY    20  14  77 NW12      29.79S WCI   8

$$

INZ030>032-037>040-046>048-054>057-064-065-091100-
CENTRAL INDIANA

CITY           SKY/WX    TMP DP  RH WIND       PRES   REMARKS
GREENWOOD *+   CLOUDY    21  19  93 W13       29.73S WCI   9
INDIANAPOLIS   FLURRIES  21  16  81 W14       29.72S WCI   8
-EAGLE CREEK   CLOUDY    21  17  84 W15G21    29.72R WCI   8
KOKOMO *+      CLOUDY    23  18  80 W16       29.68S WCI  10
MT COMFORT *+  CLOUDY    21  18  86 W13       29.71R WCI   9
SHELBYVILLE    LGT SNOW  22  18  85 W13       29.72R FOG     WCI  10

$$

INZ033-034-041-042-049-050-058-059-091100-
EAST CENTRAL INDIANA

CITY           SKY/WX    TMP DP  RH WIND       PRES   REMARKS
MUNCIE         CLOUDY    24  19  81 W10       29.67R WCI  14

$$

INZ060-061-067>069-081>083-085>088-091100-
SOUTHWEST INDIANA

CITY           SKY/WX    TMP DP  RH WIND       PRES   REMARKS
EVANSVILLE     LGT SNOW  23  15  71 W10       29.86S WCI  12
HUNTINGBURG *+ CLOUDY    21  14  73 NW10      29.83R WCI  10

$$

INZ062-063-066-070>080-084-089>092-091100-
SOUTH CENTRAL AND SOUTHEAST INDIANA

CITY           SKY/WX    TMP DP  RH WIND       PRES   REMARKS
BLOOMINGTON    FLURRIES  20  15  81 W9        29.76S WCI   9
MADISON *+     CLOUDY    23  16  74 W10       29.77R WCI  12
SEYMOUR +      CLOUDY    23  16  74 W14       29.77S WCI  11

$$




USA.gov is the U.S. government's official web portal to all federal, state and local government web resources and services.